Espace membre
ImprimablePdf
Liège, 06/05/2012, BEL - ZUT - Les 15km de Liège
Liste des rapports > 15.5km - Classement
Recherche: Page: [1]
131 Entrées
 
Les réclamations ne sont plus acceptées, les résultats sont considérés comme définitifs.
RangNrNomAgeIOCEquipeTempsTkmMoy.ScrLocalité
1.1469HEYERES Antoine Pierre56BELGROUPE BIOGEN58:283:47 15.9116HERVE
1.1461VALDERRAMA Juan52BELGROUPE BIOGEN58:283:47 15.9116LIÈGE
3.1382DEGRIECK Ivan52BEL59:013:49 15.7621JABBEKE
4.716STRUYF Paul57BELCILE LIÈGE59:263:51 15.6523LIÈGE
5.1509MARCHIONE Rosario55BEL1:00:363:55 15.3528VOTTEM
6.1682NEUTELEERS Eric521:02:394:03 14.8436
7.1521CREMER Patrick54BELRT BRAIVES1:05:224:13 14.2365HANNUT
8.305FROIDBISE Jean-Luc51BELFOULEES DU PLAISIR1:05:384:15 14.1768HUY
9.226DEMARET Raymond57BEL1:05:574:16 14.1071LINCENT
10.196DECOSTER Francis53BEL1:05:584:16 14.1072MONTEGNÉE
11.1471HERMANS Marc51BEL1:06:054:16 14.0776
12.1567LARUELLE Thierry56BEL1:06:184:17 14.0378FLEMALLE
13.526MICHOTTE Marc52BEL1:06:254:18 14.0080LIÈGE
14.323GILLET Yves53BELZATOPEK.BE1:07:194:21 13.8297VISE
15.250D'HOEY Georges51BEL1:07:204:21 13.8298CHAUDFONTAINE
16.398JOWA Pierre54BEL1:08:044:24 13.67110HOUSSE
17.789WUIDARD Jean-Luc50BEL1:08:144:25 13.63114ALLEUR
18.1434VANDENBOSSCHE Jean Pierre55BELAC NEUPRE1:09:354:30 13.37132BEAUFAYS
19.399JOWAY Eric51BELRTT1:09:554:31 13.30140WANDRE
20.1427MICHIELS Michel51BEL1:09:584:31 13.29145SERAING
21.119CHARLIER Alain57BELIRON ORGANISATION1:10:114:32 13.25147SOUGNÉ REMOUCHAMPS
22.1474JOBE Eric50BEL1:10:164:32 13.24153OCQUIER
23.41BERTONI Joel54BEL1:10:234:33 13.22155SERAING
24.1424VOLON Patrick53BEL1:10:534:35 13.12165FLEMALLE
25.213DELFORGE Yves54BEL1:11:084:36 13.07173ORET
26.306FUNKEN Didier53BEL1:11:214:37 13.03180MOMALLE
27.747VANDERHAEGEN Patrick51BEL1:11:374:38 12.99188LIÈGE
28.42BERTRAND Dominique50BEL1:12:084:40 12.89207HANEFFE
29.603PIERARD Alain57BELENTR. ZATOPEK CHARLEROI1:12:154:40 12.87209
30.352HARDMAN Willy51BEL1:12:274:41 12.84218CHASTRE
31.771WARTEL Alain51BELENTR. ZATOPEK CHARLEROI1:12:294:41 12.83220
32.48BIELEN Michel53BEL1:12:354:41 12.81222FLÉMALLE
33.14BACCATI Jean-Pierre53BELENTR. ZATOPEK CHARLEROI1:12:574:43 12.75232
34.1547KRETTELS Guy581:13:084:44 12.72237
35.2236ADANS-DESTER Bernard50BEL1:13:404:46 12.63253
36.652RIMBAUD Gilles58FRAASBL CLAIR1:13:424:46 12.62254LIÈGE
37.198DEFECHEREUX Jean-Luc57BELENTR. ZATOPEK LIÈGE1:13:434:46 12.62255JALHAY
38.472LOHEST Alain53BEL1:14:344:49 12.47283LIEGE
39.689SEGHERS Marcel53BEL1:14:384:49 12.46285FORCHIES LA MARCHE
40.658ROMANELLI Paolo52ITA1:14:474:50 12.44290TIHANGE
41.366HERTAY Jean-Paul50BEL1:14:574:51 12.41295LIÈGE
42.1438CHEVALIER Alain54BEL1:14:594:51 12.40298JUPILLE-SUR-MEUSE
43.762VIATOUR Pierre57BEL1:15:014:51 12.40300NANDRIN
44.130CLERFAYS Hubert57BELLES CAMAS DI HACOU1:15:064:51 12.38305HERMALLE-SOUS-ARGENTEAU
45.2270HAGELSTEIN Alain52BEL1:15:314:53 12.32318
46.375HOUNJE Freddy58BEL1:15:354:53 12.31320AUBEL
47.249D'HOEY Christian57BELCHC1:15:404:53 12.29323AWANS
48.1408ROLLIN Yves52BEL1:15:444:54 12.28327LIÈGE
49.621PIROTTE Pierre51BELJCPMF ANS1:16:004:55 12.24336ANS
50.578PALUMBO Pino55BEL1:16:014:55 12.24340LIEGE
51.280FAFCHAMPS Eudore52BEL1:16:054:55 12.23341VOTTEM
52.423LARBANOIS Claude57BELCILE LIÈGE1:16:344:57 12.15348LIÈGE
53.670SAMRAY Pascal54BEL1:16:404:57 12.13350MARCHE EN FAMENNE
54.2266SIMON Bruno Léon56BEL1:17:034:59 12.07358LIÈGE
55.2258GILIS Stephane55BEL1:17:094:59 12.06362WONCK
56.134CLOSSET Thierry52BELJE BOUGE POUR LA SCLÉROSE1:17:175:00 12.03364
57.541MONFORT José59BEL1:17:205:00 12.03366VIELSALM
58.717SURAY Philippe51BEL1:18:185:04 11.88392MONTIGNY LE TILLEUL
59.344GRZESINSKI Bernard51BEL1:18:215:04 11.87393FLÉMALLE
60.1571LEERSCHOOL Philippe56BEL1:18:265:04 11.86396SPRIMONT
61.431LECHANTEUR Rémy56BELJE BOUGE POUR LA SCLÉROSE1:18:265:04 11.86397
62.248DEWIL Jean50BEL1:18:405:05 11.82406LIEGE
63.6212HEMERYCK Pierre56BEL1:18:445:05 11.81410LIÈGE
64.2210SADZOT Alain51BELAGORIA RUNNING TEAM1:18:475:05 11.81411LIEGE
65.1550SCHMETZ Philippe Georges51BELLIGNE 69 - CELESTES1:18:505:06 11.80412SOUMAGNE
66.2230VIGNERONT Paul57BEL1:19:145:07 11.74426HANNUT
67.661ROSSO Léorico55BEL1:19:325:08 11.69435OUPEYE
68.80BRABANT Jean-Jacques57BEL1:20:085:11 11.61448WAREMME
69.1631DELICOURT Eric58BEL1:20:155:11 11.59452
70.738TOUSSAINT Alain59BELMPW-HJM1:20:205:11 11.58455STEMBERT
71.270DUMONT Jean Luc55BEL1:20:235:12 11.57457ECAUSSINNES
72.536MINON Philippe50BELENTR. ZATOPEK LIÈGE1:20:495:13 11.51468LIÈGE
73.2295DUCOLOT Philippe50BEL1:20:565:14 11.49473
74.487MAGERMANS Bruno52BELJE BOUGE POUR LA SCLÉROSE1:21:025:14 11.48478
75.2251LOISEAU Jean-Luc52BEL1:21:095:15 11.46482
76.59BODSON Bernard54BELENTR. ZATOPEK LIÈGE1:21:495:17 11.37497QUEUE-DU-BOIS
77.1450VICKEVORST Luc521:21:495:17 11.37498
78.1494AGUIAR Christobal54BEL1:22:025:18 11.34502HERMALLE-SOUS-ARGENTEAU
79.516MELANGE Léon59BEL1:22:215:19 11.29508LIÈGE
80.220DELVAUX Frank51BEL1:23:025:22 11.20530HERSTAL
81.728THIRY Etienne55BEL1:23:125:23 11.18538HUY
82.2225PIRLET Yves55BEL1:23:215:23 11.16544
83.64BOLAND Michel57BEL1:23:305:24 11.14551LIÈGE
84.522MEYNSBRUGHEN Philou55BELENTR. ZATOPEK LIÈGE1:23:335:24 11.13553LIEGE
85.644RENARD Bernard52BEL1:23:355:24 11.13554XHORIS
86.1475PESSER René Gérard52BEL1:23:425:24 11.11560VERVIERS
87.724THEUNISSEN Claude50BEL1:24:285:27 11.01581PLAINEVAUX
88.544MOUTON Jacques54BELDELHAIZE1:24:385:28 10.99584BR
89.35BERG Nicolas56BEL1:24:495:29 10.97586LIÈGE
90.278ETIENNE Bernard50BELJE BOUGE POUR LA SCLÉROSE1:25:145:30 10.91595
91.485MAERCKX Thierry55BELREFLEXE SANTE1:25:495:33 10.84613KRAAINEM
92.1480BONINI Hubert51BEL1:25:525:33 10.83615HERSTAL
93.1496SCHIPPERS Gery53BEL1:26:085:34 10.80624SOUMAGNE
94.286FETRO Christian51BEL1:26:085:34 10.80625LIÈGE
95.444LEKEU Jean Marie54BEL1:26:235:35 10.77635BRUXELLES
96.468LITT Jean56BELJE BOUGE POUR LA SCLÉROSE1:26:255:35 10.76637
97.166CWIKOWSKI Marc50BEL1:26:325:35 10.75641SAIVE
98.707STANDAR Michael56SWE1:26:335:35 10.75642ETTERBEEK
99.479LORQUET Guy53BEL1:26:355:36 10.74643VOTTEM
100.1627JOIRET Yvan58BELSPITEUX1:26:585:37 10.69653VINALMONT
101.745VAN LIMBERGEN Bertrand51BEL1:27:185:38 10.65664JAMBES
102.776WAUQUIER Marc54BEL1:27:405:40 10.61674ROSIÈRES
103.148CORBISIER Andre57BEL1:27:535:41 10.58679MONTIGNY LE TILLEUL
104.489MAILLEUX Jean-Pierre59BELENTR. ZATOPEK LIÈGE1:29:065:45 10.44700LIEGE
105.471LOGNOUL Guilliaume50BEL1:29:415:48 10.37710HERMALLE SOUS ARGENTAU
106.1683KESSLER Jose58BEL1:29:455:48 10.36715BRUXELLES
107.1624DEGEE Jean Luc581:30:055:49 10.33725
108.556NEVRAUMONT Jean-Marc59BELENTR. ZATOPEK CHARLEROI1:30:565:52 10.23737
109.324GILLOTEAUX Benoît55BELJCPMF HOTTON1:31:025:53 10.22740HOTTON
110.458LESPAGNARD Marcel56BELJCPMF HOTTON1:31:105:53 10.20747HOTTON
111.210DELFORGE Jean Michel52BELENTR. ZATOPEK LIÈGE1:31:155:54 10.19750NEUPRE
112.1668STEENPUT Luc53BEL1:31:365:55 10.15760NETHEN
113.1512EROWD Jean-Pierre53BEL1:31:495:56 10.13768
114.2222TODE Vincenzo501:32:516:00 10.02789
115.742TULLENEERS Thierry55BELENTR. ZATOPEK LIÈGE1:33:556:04 9.90802LIÈGE
116.337GRAVIS Joël52BEL1:34:476:07 9.81810HAVRÉ
117.68BONNET Marc52BEL1:36:516:15 9.60841LIÈGE
118.737TOURNAY Michel50BELJCPMF CHARLEROI1:37:246:18 9.55858LIBERCHIES
119.260DISWISCOURT José58BELHRC1:39:146:25 9.37875MARBEHAN
120.218DELVA Jean-Paul54BELENTR. ZATOPEK LIÈGE1:40:346:30 9.25896TROOZ
121.624POLESE Marc53BEL1:41:486:35 9.14910TROOZ
122.346GUESSE Thierry54BELENTR. ZATOPEK LIÈGE1:41:496:35 9.14911SERAING
123.1455RENETTE André55BELMPW1:43:046:39 9.02923LIEGE
124.247DEWANDRE Joseph57LIEGE EXPO 20171:44:076:43 8.93937
125.227DEMELENNE Jean - Marie58BELJCPMF HOTTON1:48:257:00 8.58961HOTTON
126.236DESSERS Guy54BELJE BOUGE POUR LA SCLÉROSE1:49:597:06 8.46972
127.481LOUCHART Bruno54BEL1:51:567:14 8.31978BRUXELLES
128.564NOËLLE Ludwig53BELJCPMF ANS1:54:007:22 8.16986HOTTON
129.341GRODENT Jean François57BELENTR. ZATOPEK LIÈGE1:54:237:23 8.13989LIÈGE
130.13BABE Michel50BEL1:58:167:38 7.86991LIEGE
DNF486MAGE Alain55BELGANSHOREN
DNF: abandon; DSQ: disqualifié; Vitesse en km/h